Caldwell, NJ

12:31 AM EDT on September 21, 2017 (GMT -0400)
Essex County

Weather History for KCDW - October, 2013

Change the Weather History Date:

Monday, October 14, 2013

  Actual Average Record
Temperature  
Mean Temperature 56 °F -  
Max Temperature 68 °F 64 °F 90 °F (1954)
Min Temperature 45 °F 44 °F 28 °F (1953)
Degree Days  
Heating Degree Days 8    
Growing Degree Days 6 (Base 50)    
Moisture  
Dew Point 46 °F    
Average Humidity 77    
Maximum Humidity 93    
Minimum Humidity 43    
Precipitation  
Precipitation 0.00 in - - ()
Sea Level Pressure  
Sea Level Pressure 30.35 in    
Wind  
Wind Speed 1 mph (ENE)    
Max Wind Speed 7 mph    
Max Gust Speed -    
Visibility 9 miles    
Events      
Averages and records for this station are not official NWS values.
T = Trace of Precipitation, MM = Missing Value Source: NWS Daily Summary

Daily Weather History Graph

Daily Weather History Graph

Search for Another Location

Airport or City:

Trip Planner

Search our weather history database for the weather conditions in past years. The results will help you decide how hot, cold, wet, or windy it might be!

Date:

Astronomy

Oct. 14, 2013 Rise Set
Actual Time 7:07 AM EDT 6:17 PM EDT
Civil Twilight 6:39 AM EDT 6:45 PM EDT
Nautical Twilight 6:08 AM EDT 7:17 PM EDT
Astronomical Twilight 5:36 AM EDT 7:48 PM EDT
Moon 3:47 PM EDT (10/14) 2:19 AM EDT (10/14)
Length of Visible Light 12h 05m
Length of Day
11h 10m
Waxing Gibbous, 79% of the Moon is Illuminated
Oct 14
Waxing Gibbous
Oct 18
Full
Oct 26
Last Quarter
Nov 3
New
Nov 10
First Quarter

Hourly Weather History & Observations

Time (EDT) Temp. Dew Point Humidity Pressure Visibility Wind Dir Wind Speed Gust Speed Precip Events Conditions
12:53 AM 48.9 °F 46.0 °F 90% 30.39 in 7.0 mi Calm Calm - N/A   Partly Cloudy
1:53 AM 48.0 °F 46.0 °F 93% 30.38 in 7.0 mi Calm Calm - N/A   Partly Cloudy
2:07 AM 46.4 °F 44.6 °F 93% 30.37 in 6.0 mi Calm Calm - N/A   Mostly Cloudy
2:53 AM 48.0 °F 46.0 °F 93% 30.38 in 8.0 mi Calm Calm - N/A   Overcast
3:15 AM 48.2 °F 44.6 °F 87% 30.36 in 6.0 mi Calm Calm - N/A   Scattered Clouds
3:53 AM 46.9 °F 45.0 °F 93% 30.38 in 1.5 mi Calm Calm - N/A   Clear
3:59 AM 46.4 °F 44.6 °F 93% 30.36 in 3.0 mi Calm Calm - N/A   Clear
4:40 AM 46.4 °F 44.6 °F 93% 30.36 in 8.0 mi Calm Calm - N/A   Mostly Cloudy
4:53 AM 46.9 °F 45.0 °F 93% 30.38 in 10.0 mi Calm Calm - N/A   Overcast
5:45 AM 46.4 °F 44.6 °F 93% 30.36 in 9.0 mi Calm Calm - N/A   Scattered Clouds
5:53 AM 46.9 °F 44.1 °F 90% 30.38 in 9.0 mi Calm Calm - N/A   Partly Cloudy
6:53 AM 45.0 °F 43.0 °F 93% 30.38 in 9.0 mi Calm Calm - N/A   Clear
7:53 AM 46.0 °F 44.1 °F 93% 30.39 in 7.0 mi Calm Calm - N/A   Clear
8:53 AM 52.0 °F 48.0 °F 86% 30.39 in 10.0 mi Calm Calm - N/A   Clear
9:37 AM 57.2 °F 46.4 °F 67% 30.38 in 10.0 mi NNE 4.6 mph - N/A   Mostly Cloudy
9:53 AM 57.9 °F 46.9 °F 67% 30.40 in 10.0 mi NE 5.8 mph - N/A   Overcast
10:53 AM 57.9 °F 46.9 °F 67% 30.38 in 10.0 mi Calm Calm - N/A   Mostly Cloudy
11:09 AM 59.0 °F 46.4 °F 63% 30.36 in 10.0 mi NE 4.6 mph - N/A   Scattered Clouds
11:53 AM 59.0 °F 46.9 °F 64% 30.36 in 10.0 mi NE 4.6 mph - N/A   Clear
12:53 PM 62.1 °F 46.9 °F 58% 30.34 in 10.0 mi Calm Calm - N/A   Clear
1:53 PM 64.0 °F 46.0 °F 52% 30.31 in 10.0 mi Calm Calm - N/A   Clear
2:53 PM 64.9 °F 44.1 °F 47% 30.29 in 10.0 mi Calm Calm - N/A   Clear
3:53 PM 68.0 °F 45.0 °F 43% 30.27 in 10.0 mi ENE 3.5 mph - N/A   Clear
4:53 PM 66.9 °F 44.1 °F 44% 30.27 in 10.0 mi South 3.5 mph - N/A   Clear
5:53 PM 64.0 °F 46.9 °F 54% 30.28 in 10.0 mi SSE 6.9 mph - N/A   Clear
6:53 PM 60.1 °F 48.0 °F 64% 30.30 in 10.0 mi Variable 3.5 mph - N/A   Clear
7:53 PM 55.9 °F 48.9 °F 77% 30.30 in 10.0 mi Calm Calm - N/A   Clear
8:53 PM 55.0 °F 48.9 °F 80% 30.30 in 10.0 mi Calm Calm - N/A   Clear
9:53 PM 53.1 °F 48.0 °F 83% 30.30 in 10.0 mi Calm Calm - N/A   Clear
10:53 PM 51.1 °F 48.0 °F 89% 30.31 in 10.0 mi Calm Calm - N/A   Clear
11:53 PM 50.0 °F 48.0 °F 93% 30.30 in 10.0 mi Calm Calm - N/A   Clear